When you browse on this site, cookies collect data to enhance your experience and personalize the content and advertising you see.
Visit our Privacy Policy to learn more. By continuing to use the site, you agree to this use of cookies and data.
  • In Hungary
  • List of Countries
  • For 7 days
  • Water Temperature
  • Satellite Maps
  • Weather Map
  • News
  • Weather Widgets
  • user-avatar
    Login

    Hourly Weather Espelkamp

    Today, 22 February, Friday

    Time Temperature Precipitation Wind Pressure Humidity
    00:00 +7°C° 0 mm 4 mps 766 mmHg 93%
    01:00 +8°C° 0 mm 3 mps 767 mmHg 94%
    02:00 +8°C° 0.1 mm 3 mps 768 mmHg 94%
    03:00 +8°C° 0.1 mm 3 mps 768 mmHg 95%
    04:00 +8°C° 0.1 mm 3 mps 768 mmHg 95%
    05:00 +8°C° 0 mm 2 mps 769 mmHg 95%
    06:00 +8°C° 0 mm 2 mps 769 mmHg 95%
    07:00 +7°C° 0 mm 2 mps 770 mmHg 94%
    08:00 +7°C° 0 mm 2 mps 770 mmHg 93%
    09:00 +8°C° 0 mm 2 mps 771 mmHg 91%
    10:00 +8°C° 0 mm 2 mps 771 mmHg 89%
    11:00 +8°C° 0 mm 2 mps 772 mmHg 86%
    12:00 +8°C° 0 mm 3 mps 772 mmHg 82%
    13:00 +9°C° 0 mm 3 mps 773 mmHg 78%
    14:00 +9°C° 0 mm 3 mps 773 mmHg 77%
    15:00 +9°C° 0 mm 3 mps 773 mmHg 75%
    16:00 +9°C° 0 mm 3 mps 773 mmHg 73%
    17:00 +8°C° 0 mm 3 mps 774 mmHg 76%
    18:00 +5°C° 0 mm 3 mps 774 mmHg 79%
    19:00 +4°C° 0 mm 3 mps 774 mmHg 82%
    20:00 +4°C° 0 mm 3 mps 775 mmHg 82%
    21:00 +3°C° 0 mm 3 mps 775 mmHg 82%
    22:00 +3°C° 0 mm 3 mps 775 mmHg 82%
    23:00 +3°C° 0 mm 3 mps 775 mmHg 82%

    Tomorrow, 23 February, Saturday

    Time Temperature Precipitation Wind Pressure Humidity
    00:00 +2°C° 0 mm 3 mps 775 mmHg 82%
    01:00 +2°C° 0 mm 3 mps 776 mmHg 83%
    02:00 +2°C° 0 mm 3 mps 775 mmHg 82%
    03:00 +1°C° 0 mm 3 mps 775 mmHg 82%
    04:00 +2°C° 0 mm 2 mps 775 mmHg 82%
    05:00 +1°C° 0 mm 2 mps 775 mmHg 80%
    06:00 +1°C° 0 mm 2 mps 775 mmHg 78%
    07:00 +1°C° 0 mm 2 mps 775 mmHg 77%
    08:00 +1°C° 0 mm 3 mps 775 mmHg 69%
    09:00 +2°C° 0 mm 3 mps 775 mmHg 61%
    10:00 +3°C° 0 mm 3 mps 775 mmHg 53%
    11:00 +4°C° 0 mm 3 mps 775 mmHg 49%
    12:00 +7°C° 0 mm 3 mps 775 mmHg 45%
    13:00 +9°C° 0 mm 3 mps 775 mmHg 41%
    14:00 +9°C° 0 mm 3 mps 774 mmHg 41%
    15:00 +9°C° 0 mm 3 mps 774 mmHg 41%
    16:00 +10°C° 0 mm 3 mps 774 mmHg 41%
    17:00 +8°C° 0 mm 3 mps 774 mmHg 44%
    18:00 +7°C° 0 mm 3 mps 774 mmHg 48%
    19:00 +5°C° 0 mm 2 mps 774 mmHg 51%
    20:00 +5°C° 0 mm 2 mps 774 mmHg 51%
    21:00 +5°C° 0 mm 2 mps 774 mmHg 51%
    22:00 +4°C° 0 mm 2 mps 774 mmHg 51%
    23:00 +4°C° 0 mm 2 mps 774 mmHg 50%

    Day after tomorrow, 24 February, Sunday

    Time Temperature Precipitation Wind Pressure Humidity
    00:00 +4°C° 0 mm 2 mps 774 mmHg 49%
    01:00 +3°C° 0 mm 2 mps 774 mmHg 48%
    02:00 +3°C° 0 mm 2 mps 774 mmHg 47%
    03:00 +3°C° 0 mm 2 mps 774 mmHg 46%
    04:00 +4°C° 0 mm 1 mps 774 mmHg 45%
    05:00 +3°C° 0 mm 1 mps 774 mmHg 45%
    06:00 +3°C° 0 mm 1 mps 774 mmHg 44%
    07:00 +3°C° 0 mm 1 mps 774 mmHg 43%
    08:00 +5°C° 0 mm 1 mps 774 mmHg 42%
    09:00 +6°C° 0 mm 1 mps 775 mmHg 41%
    10:00 +6°C° 0 mm 2 mps 775 mmHg 40%
    11:00 +8°C° 0 mm 2 mps 775 mmHg 36%
    12:00 +11°C° 0 mm 1 mps 775 mmHg 32%
    13:00 +12°C° 0 mm 1 mps 775 mmHg 28%
    14:00 +13°C° 0 mm 1 mps 775 mmHg 31%
    15:00 +13°C° 0 mm 1 mps 774 mmHg 33%
    16:00 +13°C° 0 mm 1 mps 774 mmHg 36%
    17:00 +12°C° 0 mm 2 mps 774 mmHg 39%
    18:00 +9°C° 0 mm 2 mps 775 mmHg 42%
    19:00 +7°C° 0 mm 2 mps 775 mmHg 45%
    20:00 +7°C° 0 mm 2 mps 775 mmHg 45%
    21:00 +8°C° 0 mm 1 mps 775 mmHg 45%
    22:00 +7°C° 0 mm 1 mps 775 mmHg 46%
    23:00 +7°C° 0 mm 1 mps 775 mmHg 46%

    25 February, Monday

    Time Temperature Precipitation Wind Pressure Humidity
    00:00 +8°C° 0 mm 1 mps 775 mmHg 46%
    01:00 +8°C° 0 mm 1 mps 775 mmHg 45%
    02:00 +8°C° 0 mm 1 mps 775 mmHg 46%
    03:00 +8°C° 0 mm 1 mps 775 mmHg 46%
    04:00 +7°C° 0 mm 1 mps 775 mmHg 47%
    05:00 +7°C° 0 mm 1 mps 775 mmHg 47%
    06:00 +7°C° 0 mm 1 mps 775 mmHg 47%
    07:00 +7°C° 0 mm 1 mps 775 mmHg 47%
    08:00 +8°C° 0 mm 1 mps 776 mmHg 47%
    09:00 +9°C° 0 mm 1 mps 776 mmHg 46%
    10:00 +10°C° 0 mm 1 mps 776 mmHg 46%
    11:00 +12°C° 0 mm 1 mps 775 mmHg 44%
    12:00 +14°C° 0 mm 2 mps 775 mmHg 43%
    13:00 +15°C° 0 mm 2 mps 775 mmHg 41%
    14:00 +16°C° 0 mm 1 mps 775 mmHg 42%
    15:00 +16°C° 0 mm 1 mps 775 mmHg 43%
    16:00 +15°C° 0 mm 0 mps 775 mmHg 45%
    17:00 +13°C° 0 mm 0 mps 775 mmHg 49%
    18:00 +12°C° 0 mm 0 mps 775 mmHg 54%
    19:00 +11°C° 0 mm 1 mps 775 mmHg 59%
    20:00 +10°C° 0 mm 1 mps 774 mmHg 61%
    21:00 +10°C° 0 mm 1 mps 774 mmHg 62%
    22:00 +8°C° 0 mm 0 mps 774 mmHg 64%
    23:00 +9°C° 0 mm 1 mps 774 mmHg 65%

    26 February, Tuesday

    Time Temperature Precipitation Wind Pressure Humidity
    00:00 +9°C° 0 mm 1 mps 774 mmHg 66%
    01:00 +9°C° 0 mm 1 mps 774 mmHg 67%
    02:00 +8°C° 0 mm 1 mps 773 mmHg 69%
    03:00 +8°C° 0 mm 1 mps 773 mmHg 71%
    04:00 +6°C° 0 mm 0 mps 773 mmHg 73%
    05:00 +6°C° 0 mm 0 mps 773 mmHg 74%
    06:00 +6°C° 0 mm 0 mps 773 mmHg 75%
    07:00 +5°C° 0 mm 0 mps 772 mmHg 76%
    08:00 +7°C° 0 mm 0 mps 773 mmHg 71%
    09:00 +8°C° 0 mm 0 mps 773 mmHg 66%
    10:00 +10°C° 0 mm 0 mps 773 mmHg 61%
    11:00 +11°C° 0 mm 0 mps 772 mmHg 56%
    12:00 +12°C° 0 mm 0 mps 772 mmHg 51%
    13:00 +15°C° 0 mm 1 mps 772 mmHg 46%
    14:00 +15°C° 0 mm 1 mps 772 mmHg 46%
    15:00 +15°C° 0 mm 1 mps 771 mmHg 46%
    16:00 +16°C° 0 mm 1 mps 771 mmHg 45%
    17:00 +14°C° 0 mm 1 mps 771 mmHg 51%
    18:00 +12°C° 0 mm 1 mps 771 mmHg 56%
    19:00 +10°C° 0 mm 1 mps 771 mmHg 62%
    20:00 +9°C° 0 mm 0 mps 771 mmHg 64%
    21:00 +8°C° 0 mm 0 mps 771 mmHg 66%
    22:00 +8°C° 0 mm 0 mps 771 mmHg 69%
    23:00 +7°C° 0 mm 0 mps 771 mmHg 70%

    27 February, Wednesday

    Time Temperature Precipitation Wind Pressure Humidity
    00:00 +8°C° 0 mm 1 mps 770 mmHg 71%
    01:00 +8°C° 0 mm 1 mps 770 mmHg 72%
    02:00 +7°C° 0 mm 1 mps 770 mmHg 72%
    03:00 +7°C° 0 mm 1 mps 770 mmHg 73%
    04:00 +7°C° 0 mm 1 mps 769 mmHg 73%
    05:00 +7°C° 0 mm 1 mps 769 mmHg 73%
    06:00 +6°C° 0 mm 1 mps 769 mmHg 73%
    07:00 +6°C° 0 mm 1 mps 768 mmHg 72%
    08:00 +8°C° 0 mm 1 mps 768 mmHg 68%
    09:00 +9°C° 0 mm 1 mps 768 mmHg 64%
    10:00 +10°C° 0 mm 2 mps 767 mmHg 59%
    11:00 +12°C° 0 mm 2 mps 767 mmHg 56%
    12:00 +14°C° 0 mm 2 mps 767 mmHg 53%
    13:00 +16°C° 0 mm 3 mps 766 mmHg 50%
    14:00 +16°C° 0 mm 3 mps 765 mmHg 51%
    15:00 +16°C° 0 mm 3 mps 765 mmHg 52%
    16:00 +16°C° 0 mm 3 mps 764 mmHg 54%
    17:00 +13°C° 0 mm 3 mps 764 mmHg 59%
    18:00 +11°C° 0 mm 3 mps 764 mmHg 64%
    19:00 +10°C° 0 mm 3 mps 763 mmHg 70%
    20:00 +9°C° 0 mm 3 mps 763 mmHg 73%
    21:00 +8°C° 0 mm 3 mps 763 mmHg 76%
    22:00 +8°C° 0 mm 3 mps 763 mmHg 79%
    23:00 +7°C° 0 mm 3 mps 763 mmHg 84%
    Show more